• Join FlightAware (Why Join?)
  • Login
  • US Flag 
10:31AM EDT


 

Airport Tracker/Info


-or-


 

Live Flight TrackerFlight Track Log ✈ N682RW ✈ 19-May-2013 ✈ KFTW - KBKL

Flight Track Log - Related Links

Times and Time Zones

All times are in EDT time to prevent confusion due to time zone crossing. See the N682RW flight status page for this flight to view local times or setup timezone preferences in your user account.

Time Position Orientation Groundspeed Altitude Reporting Facility
EDT Latitude Longitude Course Direction KTS MPH feet Rate Location/Type
02:01AM 32.8000 -97.3500 180° South 218 251 1,300  Level Dallas / Fort Worth TRACON
02:02AM 32.7333 -97.3500 180° South 221 254 4,000 2,520 Climbing Dallas / Fort Worth TRACON
02:03AM 32.6833 -97.2667 125° Southeast 303 349 6,400 2,460 Climbing Dallas / Fort Worth TRACON
02:04AM 32.7000 -97.1833 77° East 323 372 9,000 2,460 Climbing Dallas / Fort Worth TRACON
02:05AM 32.7411 -97.1294 48° Northeast 331 381 10,400 1,860 Climbing Fort Worth Center
02:05AM 32.7667 -97.1000 44° Northeast 359 413 10,900 1,920 Climbing Dallas / Fort Worth TRACON
02:06AM 32.8333 -97.0000 52° Northeast 404 465 13,100 2,220 Climbing Dallas / Fort Worth TRACON
02:08AM 32.9511 -96.8342 50° Northeast 419 482 16,800 1,800 Climbing Fort Worth Center
02:09AM 33.0194 -96.7394 49° Northeast 412 474 17,900 1,620 Climbing Fort Worth Center
02:10AM 33.1044 -96.6175 50° Northeast 420 483 20,100 1,980 Climbing Fort Worth Center
02:11AM 33.1828 -96.5025 51° Northeast 438 504 21,900 1,560 Climbing Fort Worth Center
02:12AM 33.2572 -96.3950 50° Northeast 451 519 23,300 1,500 Climbing Fort Worth Center
02:13AM 33.3417 -96.2722 51° Northeast 456 525 24,900 1,500 Climbing Fort Worth Center
02:14AM 33.4261 -96.1517 50° Northeast 456 525 26,400 1,320 Climbing Fort Worth Center
02:15AM 33.5103 -96.0258 51° Northeast 468 539 27,600 1,440 Climbing Fort Worth Center
02:16AM 33.5986 -95.8997 50° Northeast 479 551 29,300 1,620 Climbing Fort Worth Center
02:17AM 33.6828 -95.7733 51° Northeast 484 557 30,900 1,500 Climbing Fort Worth Center
02:18AM 33.7686 -95.6494 50° Northeast 484 557 32,300 1,020 Climbing Fort Worth Center
02:19AM 33.8564 -95.5150 52° Northeast 474 545 33,000 300 Climbing Fort Worth Center
02:20AM 33.9400 -95.3931 50° Northeast 469 540 33,000  Level Fort Worth Center
02:21AM 34.0256 -95.2658 51° Northeast 475 547 33,000  Level Fort Worth Center
02:22AM 34.1111 -95.1408 50° Northeast 480 552 33,000  Level Fort Worth Center
02:23AM 34.1944 -95.0181 51° Northeast 475 547 33,000  Level Fort Worth Center
02:24AM 34.3444 -94.7919 51° Northeast 482 555 33,000  Level Memphis Center
02:25AM 34.4281 -94.6653 51° Northeast 482 555 33,000  Level Memphis Center
02:26AM 34.5097 -94.5383 52° Northeast 477 549 33,000  Level Memphis Center
02:27AM 34.5931 -94.4139 51° Northeast 477 549 33,000  Level Memphis Center
02:28AM 34.6767 -94.2814 52° Northeast 482 555 33,000  Level Memphis Center
02:29AM 34.7578 -94.1539 52° Northeast 482 555 33,000  Level Memphis Center
02:30AM 34.8408 -94.0286 51° Northeast 476 548 33,000  Level Memphis Center
02:31AM 34.9236 -93.9003 52° Northeast 476 548 33,000 180 Level Memphis Center
02:32AM 35.0044 -93.7744 52° Northeast 476 548 33,400 420 Climbing Memphis Center
02:33AM 35.0869 -93.6508 51° Northeast 471 542 33,900 600 Climbing Memphis Center
02:34AM 35.1633 -93.5269 53° Northeast 471 542 34,600 540 Climbing Memphis Center
02:35AM 35.2436 -93.4003 52° Northeast 471 542 35,000 180 Climbing Memphis Center
02:36AM 35.3258 -93.2786 50° Northeast 466 536 35,000  Level Memphis Center
02:37AM 35.4058 -93.1514 52° Northeast 466 536 35,000  Level Memphis Center
02:38AM 35.4836 -93.0342 51° Northeast 460 529 35,000  Level Memphis Center
02:39AM 35.5633 -92.9042 53° Northeast 460 529 35,000  Level Memphis Center
02:40AM 35.6325 -92.7914 53° Northeast 460 529 35,000  Level Memphis Center
02:41AM 35.7100 -92.6581 54° Northeast 469 540 35,000  Level Memphis Center
02:42AM 35.7917 -92.5272 52° Northeast 475 547 35,000  Level Memphis Center
02:43AM 35.8731 -92.3961 53° Northeast 475 547 35,000  Level Memphis Center
02:44AM 35.9503 -92.2672 53° Northeast 475 547 35,000  Level Memphis Center
02:45AM 36.0314 -92.1408 52° Northeast 470 541 35,000  Level Memphis Center
02:46AM 36.1081 -92.0039 55° Northeast 463 533 35,000  Level Memphis Center
02:47AM 36.1889 -91.8769 52° Northeast 458 527 35,000  Level Memphis Center
02:48AM 36.2636 -91.7494 54° Northeast 463 533 35,000  Level Memphis Center
02:49AM 36.3442 -91.6219 52° Northeast 463 533 35,000  Level Memphis Center
02:50AM 36.4161 -91.4942 55° Northeast 458 527 35,000  Level Memphis Center
02:51AM 36.4986 -91.3714 50° Northeast 458 527 35,000  Level Memphis Center
02:52AM 36.5767 -91.2381 54° Northeast 458 527 35,000  Level Memphis Center
02:53AM 36.6547 -91.1044 54° Northeast 458 527 35,000  Level Memphis Center
02:54AM 36.7283 -90.9808 53° Northeast 458 527 35,000  Level Memphis Center
02:55AM 36.8058 -90.8519 53° Northeast 458 527 35,000  Level Memphis Center
02:56AM 36.8750 -90.7381 53° Northeast 458 527 35,000  Level Memphis Center
02:58AM 36.9933 -90.5328 54° Northeast 459 528 35,000  Level Kansas City Center
02:59AM 37.0678 -90.4036 54° Northeast 457 526 35,000  Level Kansas City Center
03:00AM 37.1422 -90.2750 54° Northeast 455 524 35,000  Level Kansas City Center
03:01AM 37.2175 -90.1464 54° Northeast 456 525 35,000  Level Kansas City Center
03:02AM 37.2917 -90.0161 54° Northeast 456 525 35,000  Level Kansas City Center
03:03AM 37.3656 -89.8867 54° Northeast 456 525 35,000  Level Kansas City Center
03:04AM 37.4406 -89.7569 54° Northeast 456 525 35,000  Level Kansas City Center
03:05AM 37.5131 -89.6286 55° Northeast 452 520 35,000  Level Kansas City Center
03:06AM 37.5883 -89.4956 54° Northeast 452 520 35,000  Level Kansas City Center
03:07AM 37.6606 -89.3694 54° Northeast 453 521 35,000  Level Kansas City Center
03:08AM 37.7331 -89.2392 55° Northeast 453 521 35,000  Level Kansas City Center
03:09AM 37.8081 -89.1072 54° Northeast 457 526 35,000  Level Kansas City Center
03:10AM 37.8811 -88.9747 55° Northeast 458 527 35,000  Level Kansas City Center
03:11AM 37.9542 -88.8436 55° Northeast 459 528 35,000  Level Kansas City Center
03:12AM 38.0272 -88.7125 55° Northeast 458 527 35,000  Level Kansas City Center
03:13AM 38.0989 -88.5792 56° Northeast 455 524 35,000  Level Kansas City Center
03:14AM 38.1719 -88.4464 55° Northeast 457 526 35,000  Level Kansas City Center
03:15AM 38.2453 -88.3144 55° Northeast 455 524 35,000  Level Kansas City Center
03:16AM 38.3172 -88.1811 55° Northeast 456 525 35,000  Level Kansas City Center
03:17AM 38.3897 -88.0472 55° Northeast 456 525 35,000  Level Kansas City Center
03:18AM 38.4628 -87.9147 55° Northeast 454 522 35,000  Level Kansas City Center
03:19AM 38.5356 -87.7794 55° Northeast 457 526 35,000  Level Kansas City Center
03:20AM 38.6083 -87.6444 55° Northeast 457 526 35,000  Level Kansas City Center
03:21AM 38.6822 -87.5061 56° Northeast 463 533 35,000  Level Kansas City Center
03:22AM 38.7706 -87.3414 55° Northeast 466 536 35,000  Level Indianapolis Center
03:23AM 38.8439 -87.2006 56° Northeast 469 540 35,000  Level Indianapolis Center
03:24AM 38.9175 -87.0631 55° Northeast 466 536 35,000  Level Indianapolis Center
03:25AM 38.9894 -86.9258 56° Northeast 461 531 35,000  Level Indianapolis Center
03:26AM 39.0611 -86.7886 56° Northeast 460 529 35,000  Level Indianapolis Center
03:27AM 39.1322 -86.6494 57° Northeast 462 532 35,000  Level Indianapolis Center
03:28AM 39.1975 -86.5244 56° Northeast 464 534 35,000  Level Indianapolis Center
03:29AM 39.2686 -86.3881 56° Northeast 460 529 35,000  Level Indianapolis Center
03:30AM 39.3389 -86.2514 56° Northeast 461 531 35,000  Level Indianapolis Center
03:31AM 39.4097 -86.1128 56° Northeast 466 536 35,000  Level Indianapolis Center
03:32AM 39.4806 -85.9736 57° Northeast 469 540 35,000  Level Indianapolis Center
03:33AM 39.5642 -85.8075 57° Northeast 463 533 35,000  Level Indianapolis Center
03:34AM 39.6333 -85.6703 57° Northeast 458 527 35,000  Level Indianapolis Center
03:35AM 39.7036 -85.5333 56° Northeast 459 528 35,000  Level Indianapolis Center
03:36AM 39.7714 -85.3956 57° Northeast 458 527 35,000  Level Indianapolis Center
03:37AM 39.8411 -85.2564 57° Northeast 461 531 35,000  Level Indianapolis Center
03:38AM 39.9092 -85.1194 57° Northeast 454 522 35,000  Level Indianapolis Center
03:39AM 39.9758 -84.9825 58° Northeast 450 518 35,000  Level Indianapolis Center
03:40AM 40.0447 -84.8428 57° Northeast 451 519 35,000 -180 Level Indianapolis Center
03:41AM 40.1125 -84.7044 57° Northeast 447 514 34,700 -840 Descending Indianapolis Center
03:42AM 40.1794 -84.5658 58° Northeast 447 514 33,400 -1,320 Descending Indianapolis Center
03:43AM 40.2378 -84.4494 57° Northeast 451 519 32,100 -1,440 Descending Indianapolis Center
03:44AM 40.3061 -84.3058 58° Northeast 457 526 30,600 -1,440 Descending Indianapolis Center
03:45AM 40.3767 -84.1589 58° Northeast 469 540 29,300 -900 Descending Indianapolis Center
03:46AM 40.4475 -84.0114 58° Northeast 471 542 28,900 -180 Descending Indianapolis Center
03:47AM 40.5169 -83.8647 58° Northeast 468 539 29,000  Climbing Indianapolis Center
03:48AM 40.5869 -83.7167 58° Northeast 470 541 29,000  Level Indianapolis Center
03:49AM 40.6331 -83.6228 57° Northeast 463 533 29,000 -420 Level Cleveland Center
03:50AM 40.7083 -83.4619 58° Northeast 463 533 28,300 -1,740 Descending Cleveland Center
03:51AM 40.7744 -83.3167 59° Northeast 463 533 25,600 -2,880 Descending Cleveland Center
03:52AM 40.8447 -83.1658 58° Northeast 468 539 22,600 -2,820 Descending Cleveland Center
03:53AM 40.9103 -83.0231 59° Northeast 461 531 20,000 -2,580 Descending Cleveland Center
03:54AM 40.9714 -82.8878 59° Northeast 442 509 17,500 -2,520 Descending Cleveland Center
03:54AM 40.9889 -82.8497 59° Northeast 421 484 16,800 -2,400 Descending Cleveland Center
03:55AM 41.0303 -82.7603 58° Northeast 418 481 15,100 -2,460 Descending Cleveland Center
03:55AM 41.0519 -82.7169 56° Northeast 398 458 14,100 -2,640 Descending Cleveland Center
03:56AM 41.0867 -82.6383 60° Northeast 406 467 12,500 -2,520 Descending Cleveland Center
03:56AM 41.1064 -82.5947 59° Northeast 382 440 11,600 -2,100 Descending Cleveland Center
03:57AM 41.1411 -82.5186 59° Northeast 382 440 10,400 -1,620 Descending Cleveland Center
03:57AM 41.1606 -82.4778 58° Northeast 364 419 10,000 -300 Descending Cleveland Center
03:58AM 41.1886 -82.4181 58° Northeast 365 420 10,100  Climbing Cleveland Center
03:58AM 41.2122 -82.3608 61° Northeast 349 402 10,000 -120 Descending Cleveland Center
03:59AM 41.2339 -82.3117 60° Northeast 345 397 10,000 -600 Level Cleveland Center
03:59AM 41.2597 -82.2625 55° Northeast 284 327 9,400 -1,200 Descending Cleveland Center
04:00AM 41.2769 -82.2217 61° Northeast 300 345 8,800 -1,620 Descending Cleveland Center
04:00AM 41.2964 -82.1750 61° Northeast 266 306 7,800 -1,740 Descending Cleveland Center
04:01AM 41.3156 -82.1367 56° Northeast 267 307 7,100 -1,620 Descending Cleveland Center
04:01AM 41.3350 -82.0931 59° Northeast 268 308 6,200 -1,500 Descending Cleveland Center
04:02AM 41.3522 -82.0492 62° Northeast 267 307 5,600 -1,380 Descending Cleveland Center
04:03AM 41.3736 -82.0053 57° Northeast 274 315 4,800 -1,020 Descending Cleveland Center
04:03AM 41.3931 -81.9561 62° Northeast 267 307 4,600 -900 Descending Cleveland Center
04:04AM 41.4058 -81.9258 61° Northeast 234 269 3,900 -1,440 Descending Cleveland Center
04:04AM 41.4231 -81.8875 59° Northeast 239 275 3,200 -1,380 Descending Cleveland Center
04:05AM 41.4358 -81.8628 55° Northeast 173 199 2,500 -720 Descending Cleveland Center
04:06AM 41.4594 -81.8078 60° Northeast 170 196 2,200 -600 Descending Cleveland Center
04:07AM 41.4850 -81.7556 57° Northeast 170 196 1,300 -720 Descending Cleveland Center
04:08AM 41.5061 -81.7089 59° Northeast 136 157 800 -540 Descending Cleveland Center
04:10AM 41.5175 -81.6833 62° Northeast  Level Estimated